Flag for Canada Weather past 2 weeks in Thunder Bay, Ontario, Canada

Now
66 °F

Overcast.


Feels Like: 66 °F
Forecast: 53 / 64 °F
Wind: 10 mph from Northeast

Location: Thunder Bay

Current Time: May 26, 2015 at 12:21:02 PM

Latest Report: May 26, 2015 at 11:00 AM


Visibility: 20 mi

Pressure: 29.85 "Hg

Humidity: 64%

Dew point: 54 °F

Location of Thunder BayLocation

Historic Weather in Thunder Bay — Graph

°F

Thunder Bay temperature yesterday

Maximum temperature yesterday: 57 °F (at 5:00 PM)
Minimum temperature yesterday: 48 °F (at 5:00 AM)
Average temperature yesterday: 52 °F

Past Weeks' High & Low Weather Summary

 TemperatureHumidityPressure
High82 °F (May 23, 3:00 PM)100% (May 11, 12:00 PM)30.50 "Hg (May 11, 12:00 PM)
Low27 °F (May 22, 6:00 AM)15% (May 21, 6:00 PM)29.61 "Hg (May 18, 2:52 AM)
Average48 °F71%30.05 "Hg
* Reported May 11 11:00 AM — May 26 11:00 AM, Thunder Bay, Weather by CustomWeather, © 2015

Note: Actual official high and low records may vary slightly from our data, if they occured in-between our weather recording intervals... More about our weather records

Advertising

Thunder Bay weather history for previous 24 hours

 ConditionsComfort  
Time TempWeatherWind HumidityBarometerVisibility
11:00 AM
Tue, May 26
66 °FOvercast.10 mph64%29.85 "Hg20 mi
10:00 AM63 °FPartly sunny.5 mph77%29.86 "Hg20 mi
9:00 AM57 °FBroken clouds.3 mph88%29.86 "Hg20 mi
8:00 AM55 °FPartly sunny.2 mph94%29.86 "Hg20 mi
7:00 AM54 °FPassing clouds.3 mph100%29.84 "Hg20 mi
6:00 AM54 °FLight rain. Passing clouds.2 mph100%29.80 "Hg20 mi
5:00 AM54 °FLight rain. Overcast.5 mph100%29.81 "Hg10 mi
4:00 AM55 °FLight rain. Overcast.2 mph94%29.80 "Hg10 mi
3:00 AM54 °FLight rain. Fog.6 mph100%29.80 "Hg4 mi
2:00 AM54 °FLight rain. Fog.5 mph100%29.80 "Hg3 mi
1:00 AM55 °FLight rain. Fog.5 mph94%29.79 "Hg2 mi
12:00 AM55 °FLight rain. Fog.3 mph94%29.79 "Hg6 mi
11:00 PM
Mon, May 25
55 °FLight rain. Fog.6 mph94%29.77 "Hg6 mi
10:00 PM57 °FLight rain. Overcast.9 mph88%29.76 "Hg10 mi
9:00 PM55 °FLight rain. Fog.8 mph94%29.77 "Hg6 mi
8:00 PM57 °FLight rain. Overcast.9 mph88%29.75 "Hg10 mi
7:00 PM57 °FLight rain. Fog.8 mph94%29.75 "Hg10 mi
6:00 PM57 °FLight rain. Fog.3 mph100%29.76 "Hg2 mi
5:00 PM57 °FLight rain. Cloudy.9 mph94%29.75 "Hg8 mi
4:00 PM55 °FLight rain. Low clouds.13 mph100%29.76 "Hg6 mi
3:00 PM52 °FLight rain. Low clouds.3 mph94%29.78 "Hg6 mi
2:00 PM50 °FOvercast.8 mph94%29.81 "Hg8 mi
1:00 PM50 °FLight rain. Mostly cloudy.6 mph94%29.83 "Hg10 mi
12:00 PM48 °FLight rain. Mostly cloudy.5 mph94%29.84 "Hg10 mi
Weather by CustomWeather, © 2015

See weather overviewHow to use our weather pages